This is the latest recevied weather packets stored in our database for station/object KC1IUC-13. If no packets are shown the sender has not sent any weather packets the latest 10 day(s).
| Time | Temp. | Humidity | Pressure | Rain* | Wind** | Luminosity | Snow |
|---|---|---|---|---|---|---|---|
| 1777228563 | 15.56° C | 66% | 1015.9 hPa | 0 mm | - | 458 W/m² | - |
| 1777228023 | 15° C | 66% | 1016.2 hPa | 0 mm | - | 330 W/m² | - |
| 1777227483 | 15° C | 65% | 1016.2 hPa | 0 mm | - | 681 W/m² | - |
| 1777226943 | 15° C | 66% | 1016.2 hPa | 0 mm | - | 242 W/m² | - |
| 1777226403 | 15° C | 69% | 1015.9 hPa | 0 mm | - | 667 W/m² | - |
| 1777226043 | 15° C | 70% | 1016.2 hPa | 0 mm | - | 558 W/m² | - |
| 1777225503 | 14.44° C | 71% | 1016.2 hPa | 0 mm | - | 316 W/m² | - |
| 1777224963 | 14.44° C | 72% | 1016.2 hPa | 0 mm | - | 323 W/m² | - |
| 1777224423 | 14.44° C | 73% | 1016.2 hPa | 0 mm | - | 200 W/m² | - |
| 1777223883 | 13.89° C | 73% | 1016.2 hPa | 0 mm | - | 534 W/m² | - |
| 1777223343 | 13.89° C | 77% | 1016.6 hPa | 0 mm | - | 506 W/m² | - |
| 1777222803 | 13.33° C | 78% | 1016.2 hPa | 0 mm | - | 179 W/m² | - |
| 1777222443 | 13.33° C | 78% | 1016.6 hPa | 0 mm | - | 295 W/m² | - |
| 1777221903 | 13.33° C | 79% | 1016.6 hPa | 0 mm | - | 511 W/m² | - |
| 1777221363 | 13.33° C | 80% | 1016.6 hPa | 0 mm | - | 434 W/m² | - |
| 1777220823 | 13.33° C | 81% | 1016.6 hPa | 0 mm | - | 534 W/m² | - |
| 1777220283 | 12.78° C | 82% | 1016.6 hPa | 0 mm | - | 315 W/m² | - |
| 1777219743 | 12.22° C | 82% | 1016.9 hPa | 0 mm | - | 343 W/m² | - |
| 1777219204 | 12.78° C | 84% | 1016.6 hPa | 0 mm | - | 469 W/m² | - |
| 1777218844 | 12.78° C | 86% | 1016.6 hPa | 0 mm | - | 413 W/m² | - |
| 1777218304 | 12.22° C | 86% | 1016.6 hPa | 0 mm | - | 477 W/m² | - |
| 1777217764 | 11.11° C | 86% | 1016.6 hPa | 0 mm | - | 237 W/m² | - |
| 1777217224 | 11.11° C | 87% | 1016.6 hPa | 0 mm | - | 234 W/m² | - |
| 1777216685 | 11.11° C | 88% | 1016.6 hPa | 0 mm | - | 270 W/m² | - |
| 1777216144 | 11.11° C | 88% | 1016.6 hPa | 0 mm | - | 262 W/m² | - |
* Rain latest hour (hover to see other rain measurements)
** Current wind speed in m/s (hover to see current wind gust speed)